sat.trackr.live / text

‹ back to catalog

ASTROSAT

NORAD 40930 · 2015-052A

PAYLOAD ACTIVE UNKNOWN

§ Identity

Operator
Country
IND
Launch date
2015-09-28
Launch site
SRILR
Launch vehicle
Mass (kg)
RCS (m²)
4.88

Purposes: science

External: N2YO · Heavens-Above · Gunter

§ Orbital elements

Epoch: 2026-05-25T03:37:18.236064Z

Period
97.14 min
Inclination
5.9989°
Eccentricity
0.0007589
Mean motion
14.82459854 rev/d
Perigee alt
616.3 km
Apogee alt
626.9 km
Semi-major
6,999.7 km
B*
1.0243e-4
RAAN
321.1626°
Arg perigee
63.2978°
Mean anomaly
296.7926°
Rev number
57,640

§ Raw data

ASTROSAT1 40930U 15052A   26145.15090551  .00001511  00000+0  10243-3 0  99932 40930   5.9989 321.1626 0007589  63.2978 296.7926 14.82459854576406

JSON: /api/v1/satellites/40930 · /tle

For live sub-satellite position, see the globe view (requires WebGL).

§ Visibility from observer

Set your observer location to see the next 7 days of passes ≥ 10°. The values pass through the URL so the page stays shareable.

No JS? Fill the form by hand. The geolocation button needs JavaScript.